This is the latest recevied weather packets stored in our database for station/object K1AWR. If no packets are shown the sender has not sent any weather packets the latest 10 day(s).
| Time | Temp. | Humidity | Pressure | Rain* | Wind** | Luminosity | Snow |
|---|---|---|---|---|---|---|---|
| 1778026857 | 19.44° C | 59% | 1009.4 hPa | 0 mm | - | 0 W/m² | - |
| 1778026553 | 19.44° C | 58% | 1009.4 hPa | 0 mm | - | 0 W/m² | - |
| 1778026251 | 20° C | 59% | 1009.3 hPa | 0 mm | - | 0 W/m² | - |
| 1778025948 | 20° C | 57% | 1009 hPa | 0 mm | - | 0 W/m² | - |
| 1778025645 | 20° C | 58% | 1009 hPa | 0 mm | - | 1 W/m² | - |
| 1778025343 | 20° C | 57% | 1009.2 hPa | 0 mm | - | 1 W/m² | - |
| 1778025040 | 20° C | 59% | 1008.9 hPa | 0 mm | - | 2 W/m² | - |
| 1778024737 | 20° C | 58% | 1008.8 hPa | 0 mm | - | 3 W/m² | - |
| 1778024433 | 20° C | 57% | 1008.7 hPa | 0 mm | - | 5 W/m² | - |
| 1778024131 | 20° C | 58% | 1008.5 hPa | 0 mm | - | 7 W/m² | - |
| 1778023828 | 20.56° C | 57% | 1008.5 hPa | 0 mm | - | 8 W/m² | - |
| 1778023526 | 20.56° C | 56% | 1008.6 hPa | 0 mm | - | 10 W/m² | - |
| 1778023223 | 20.56° C | 56% | 1008.8 hPa | 0 mm | - | 12 W/m² | - |
| 1778022920 | 21.11° C | 55% | 1008.5 hPa | 0 mm | - | 16 W/m² | - |
| 1778022619 | 21.11° C | 55% | 1008.4 hPa | 0 mm | - | 19 W/m² | - |
| 1778022316 | 21.11° C | 55% | 1008.1 hPa | 0 mm | - | 23 W/m² | - |
| 1778022012 | 21.67° C | 55% | 1008.2 hPa | 0 mm | - | 28 W/m² | - |
| 1778021709 | 21.67° C | 53% | 1008 hPa | 0 mm | - | 36 W/m² | - |
| 1778021405 | 21.67° C | 53% | 1008 hPa | 0 mm | - | 39 W/m² | - |
| 1778021102 | 22.22° C | 53% | 1007.8 hPa | 0 mm | - | 41 W/m² | - |
| 1778020799 | 22.22° C | 53% | 1007.8 hPa | 0 mm | - | 45 W/m² | - |
| 1778020496 | 22.22° C | 52% | 1007.9 hPa | 0 mm | - | 48 W/m² | - |
| 1778020193 | 22.22° C | 52% | 1007.9 hPa | 0 mm | - | 53 W/m² | - |
| 1778019889 | 22.78° C | 51% | 1007.9 hPa | 0 mm | - | 56 W/m² | - |
| 1778019584 | 22.78° C | 51% | 1007.9 hPa | 0 mm | - | 48 W/m² | - |
* Rain latest hour (hover to see other rain measurements)
** Current wind speed in m/s (hover to see current wind gust speed)